Tracking 20628 objects as of 7-Apr-2020
HD Live streaming from Space Station
objects crossing your sky now

ZHEDA PIXING 1C

Track ZHEDA PIXING 1C now!
10-day predictions
ZHEDA PIXING 1C is classified as:


NORAD ID: 37167
Int'l Code: 2010-047C
Perigee: 616.8 km
Apogee: 651.1 km
Inclination: 97.7 °
Period: 97.2 minutes
Semi major axis: 7004 km
RCS: 0.149 m2 (medium)
Launch date: September 22, 2010
Source: People's Republic of China (PRC)
Launch site: Jiuquan Satellite Launch Center, China (JSC)
aabbcc
Your satellite tracking list
Your tracking list is empty




NASA's NSSDC Master Catalog

Two Line Element Set (TLE):
1 37167U 10047C   20098.91587262  .00000119  00000-0  21932-4 0  9997
2 37167  97.7015  88.6411 0024484 123.6383 236.7178 14.80783813515313
Source of the keplerian elements: AFSPC